15min,AgWx,beryljct,423,22SEP2020:00:00:00,64.3,12.89,61.5,61.7,62.8,65.2,61.3,51,54,45,0.988,44.2,44.6,43.4,3.551,4.3,148,8.4,6.6,0.00017,0.00028,63.0,64.0,10,0,.,.,4.29,0.00,0.00
15min,AgWx,beryljct,423,22SEP2020:00:15:00,63.6,12.88,65.1,65.2,63.1,65.2,61.4,49,53,44,0.936,43.4,44.4,42.5,4.362,3.6,163,9.0,6.0,0.00012,0.00022,62.9,64.0,10,0,.,.,4.28,0.00,0.00
15min,AgWx,beryljct,423,22SEP2020:00:30:00,63.7,12.86,66.6,66.7,66.2,67.2,65.0,41,44,39,0.887,42.0,42.8,41.3,3.135,4.7,171,8.4,6.7,0.00030,0.00046,62.7,64.0,10,0,.,.,4.28,0.00,0.00
15min,AgWx,beryljct,423,22SEP2020:00:45:00,63.9,12.87,65.9,65.1,65.8,66.6,64.6,41,44,39,0.894,41.7,42.5,40.8,3.398,4.3,183,12,7.0,0.00026,0.00041,62.6,63.9,10,0,.,.,4.28,0.00,0.00
15min,AgWx,beryljct,423,22SEP2020:01:00:00,64.2,12.86,67.3,67.3,66.1,67.4,65.1,40,42,37,0.843,40.8,41.6,40.1,3.113,3.7,180,13,5.2,0.00020,0.00033,62.5,63.9,10,0,.,.,4.28,0.00,0.00
15min,AgWx,beryljct,423,22SEP2020:01:15:00,64.6,12.86,67.0,66.3,66.9,67.6,65.9,38,41,36,0.848,40.5,41.4,39.7,2.806,3.1,182,8.8,4.8,0.00014,0.00025,62.4,63.9,10,0,.,.,4.28,0.00,0.00
15min,AgWx,beryljct,423,22SEP2020:01:30:00,64.9,12.85,65.7,65.6,66.8,67.7,65.4,38,41,36,0.864,40.2,41.8,39.5,1.841,2.4,145,31,4.1,0.00003,0.00009,62.3,63.9,10,0,.,.,4.28,0.00,0.00
15min,AgWx,beryljct,423,22SEP2020:01:45:00,64.5,12.84,59.4,59.5,61.4,65.6,59.5,49,53,40,0.919,42.1,44.1,40.8,2.762,2.8,327,32,4.5,0.00003,0.00009,62.2,63.8,10,0,.,.,4.28,0.00,0.00
15min,AgWx,beryljct,423,22SEP2020:02:00:00,63.5,12.83,61.1,60.3,59.4,60.4,58.7,53,57,48,0.853,42.4,43.8,40.4,1.929,1.9,328,8.2,3.5,-0.00010,-0.00010,62.1,63.8,10,0,.,.,4.28,0.00,0.00
15min,AgWx,beryljct,423,22SEP2020:02:15:00,62.6,12.83,59.4,61.5,60.8,62.3,59.8,49,54,47,0.937,41.6,43.7,40.4,0,0.9,70,49,3.9,-0.00022,-0.00031,62.0,63.8,10,0,.,.,4.28,0.00,0.00
15min,AgWx,beryljct,423,22SEP2020:02:30:00,62.2,12.81,65.6,65.2,61.8,65.2,58.2,52,62,46,0.986,44.0,45.6,43.1,5.217,3.5,151,37,6.9,0.00008,0.00015,61.9,63.8,10,0,.,.,4.28,0.00,0.00
15min,AgWx,beryljct,423,22SEP2020:02:45:00,62.9,12.81,66.2,66.3,66.0,66.4,65.2,45,47,44,0.966,44.0,44.5,43.4,4.538,4.4,175,8.3,6.1,0.00024,0.00038,61.8,63.7,10,0,.,.,4.28,0.00,0.00
15min,AgWx,beryljct,423,22SEP2020:03:00:00,63.8,12.8,66.0,65.8,65.9,66.4,65.3,44,46,43,0.963,43.6,44.0,43.2,3.442,4.2,168,10,5.7,0.00023,0.00036,61.8,63.7,10,0,.,.,4.28,0.00,0.00
15min,AgWx,beryljct,423,22SEP2020:03:15:00,63.9,12.8,62.4,61.4,62.7,65.9,59.6,54,64,44,1.036,45.5,47.8,43.6,1.776,1.8,97,36,4.5,-0.00010,-0.00011,61.7,63.7,10,0,.,.,4.27,0.00,0.00
15min,AgWx,beryljct,423,22SEP2020:03:30:00,63.5,12.79,59.0,59.9,61.8,63.9,59.9,53,59,49,0.967,44.5,46.4,43.1,4.845,4.0,75,18,6.1,0.00012,0.00021,61.6,63.6,10,0,.,.,4.28,0.00,0.00
15min,AgWx,beryljct,423,22SEP2020:03:45:00,62.6,12.79,60.6,59.8,59.1,59.8,58.4,54,57,50,0.879,42.4,43.8,41.1,4.121,3.6,15,52,5.3,0.00008,0.00014,61.6,63.6,10,0,.,.,4.28,0.00,0.00
15min,AgWx,beryljct,423,22SEP2020:04:00:00,62.0,12.78,59.6,59.3,59.1,59.9,58.5,52,57,49,0.926,41.7,43.3,40.4,3.749,3.5,287,20,5.2,0.00008,0.00015,61.5,63.6,10,0,.,.,4.28,0.00,0.00
15min,AgWx,beryljct,423,22SEP2020:04:15:00,61.5,12.77,61.6,61.0,60.3,61.3,59.3,52,58,47,0.924,42.5,44.5,41.1,4.209,3.3,290,10,4.8,0.00006,0.00012,61.4,63.5,10,0,.,.,4.28,0.00,0.00
15min,AgWx,beryljct,423,22SEP2020:04:30:00,61.4,12.77,59.4,59.6,61.1,62.7,59.6,52,59,44,1.018,43.2,45.2,40.8,0.833,1.2,306,3.4,4.0,-0.00018,-0.00024,61.4,63.5,10,0,.,.,4.28,0.00,0.00
15min,AgWx,beryljct,423,22SEP2020:04:45:00,61.2,12.74,59.8,59.8,59.5,60.0,59.2,60,63,56,1.052,45.5,46.8,44.4,4.034,2.4,323,18,4.5,-0.00006,-0.00005,61.3,63.5,10,0,.,.,4.28,0.00,0.00
15min,AgWx,beryljct,423,22SEP2020:05:00:00,60.9,12.75,61.0,60.1,60.5,61.8,59.3,57,62,51,1.022,45.0,46.4,43.4,4.209,2.4,251,28,4.3,-0.00005,-0.00003,61.2,63.4,10,0,.,.,4.28,0.00,0.00
15min,AgWx,beryljct,423,22SEP2020:05:15:00,60.4,12.75,58.9,58.5,59.3,60.6,57.8,59,64,55,0.988,45.0,45.8,44.2,2.718,3.5,297,29,4.4,0.00004,0.00009,61.2,63.4,10,0,.,.,4.28,0.00,0.00
15min,AgWx,beryljct,423,22SEP2020:05:30:00,59.8,12.74,57.6,57.2,57.6,58.6,56.9,58,61,56,0.971,43.0,44.2,42.5,1.535,3.1,318,20,4.4,0.00001,0.00004,61.1,63.3,10,0,.,.,4.28,0.00,0.00
15min,AgWx,beryljct,423,22SEP2020:05:45:00,59.4,12.74,57.2,57.5,58.1,59.0,57.3,57,61,54,0.914,42.8,44.0,41.9,3.354,3.5,317,13,5.9,0.00041,0.00071,61.1,63.3,10,0,.,.,4.28,0.00,0.00
15min,AgWx,beryljct,423,22SEP2020:06:00:00,58.8,12.73,53.7,55.1,56.7,57.6,55.1,60,65,57,0.956,43.1,44.1,42.3,0.526,3.4,237,35,5.0,0.00037,0.00064,61.0,63.3,10,0,.,.,4.28,0.00,0.00
15min,AgWx,beryljct,423,22SEP2020:06:15:00,58.0,12.71,56.8,57.0,57.3,58.8,54.3,59,69,54,0.924,42.9,44.2,42.1,0.46,0.5,332,30,2.8,0.00007,0.00012,60.9,63.3,10,0,.,.,4.28,0.00,0.00
15min,AgWx,beryljct,423,22SEP2020:06:30:00,57.3,12.72,57.5,57.6,57.4,58.1,56.7,57,59,55,0.902,42.2,42.7,41.8,1.184,2.5,185,28,4.3,0.00031,0.00054,60.9,63.2,10,3,.,.,4.28,0.00,0.00
15min,AgWx,beryljct,423,22SEP2020:06:45:00,56.4,12.75,55.9,55.6,54.5,57.5,52.4,65,71,55,0.912,42.7,43.5,41.5,0,0.4,59,39,2.3,0.00011,0.00015,60.8,63.2,10,9,.,.,4.28,0.00,0.00
15min,AgWx,beryljct,423,22SEP2020:07:00:00,55.5,12.77,52.9,52.4,52.2,55.7,51.0,71,75,61,0.945,43.2,43.6,42.2,0.811,0.1,34,1.2,1.0,0.00024,0.00026,60.7,63.1,10,37,.,.,4.28,0.00,0.00
15min,AgWx,beryljct,423,22SEP2020:07:15:00,55.2,12.84,55.4,54.4,52.5,54.4,50.9,73,79,69,1.005,44.0,45.4,43.0,0.132,1.4,77,27,2.8,0.00059,0.00070,60.5,63.1,10,92,.,.,4.29,0.00,0.00
15min,AgWx,beryljct,423,22SEP2020:07:30:00,55.9,12.93,58.5,58.0,55.6,58.0,54.5,67,72,61,1.011,44.8,45.8,44.0,0.723,1.3,234,36,2.5,0.00084,0.00098,60.4,63.1,10,137,.,.,4.28,0.00,0.00
15min,AgWx,beryljct,423,22SEP2020:07:45:00,57.5,13.14,57.7,57.5,56.8,58.1,56.1,73,78,62,1.174,48.4,49.8,45.1,3.617,2.1,134,30,3.6,0.00110,0.00128,60.3,63.0,10,186,.,.,4.28,0.00,0.00
15min,AgWx,beryljct,423,22SEP2020:08:00:00,59.6,13.42,61.3,60.7,59.2,60.7,57.4,71,75,66,1.232,50.0,51.7,48.6,1.666,2.3,136,7.9,3.7,0.00142,0.00165,60.2,63.0,10,237,.,.,4.28,0.00,0.00
15min,AgWx,beryljct,423,22SEP2020:08:15:00,62.3,13.64,64.4,63.9,62.2,63.9,60.7,68,70,65,1.327,51.4,53.0,49.0,1.535,1.9,135,11,2.8,0.00176,0.00200,60.1,63.0,10,287,.,.,4.28,0.00,0.00
15min,AgWx,beryljct,423,22SEP2020:08:30:00,65.3,14.2,67.5,67.2,65.7,67.2,64.0,62,68,53,1.260,52.3,53.9,49.3,1.184,1.3,75,19,1.9,0.00212,0.00236,60.0,62.9,10,338,.,.,4.27,0.00,0.00
15min,AgWx,beryljct,423,22SEP2020:08:45:00,68.6,14.11,68.7,68.6,68.0,68.6,67.2,51,59,44,1.100,49.2,53.0,45.9,1.228,1.5,36,11,2.8,0.00252,0.00284,60.0,62.9,10,387,.,.,4.27,0.00,0.00
15min,AgWx,beryljct,423,22SEP2020:09:00:00,71.8,14.14,69.7,69.9,69.5,70.4,68.6,45,51,42,1.218,47.1,50.9,44.9,1.491,1.0,99,24,3.5,0.00283,0.00314,60.0,62.8,10,438,.,.,4.27,0.00,0.00
15min,AgWx,beryljct,423,22SEP2020:09:15:00,74.6,14.03,70.9,71.3,70.5,71.3,69.7,48,55,43,1.357,50.0,53.9,46.4,2.587,2.6,67,33,5.2,0.00330,0.00381,60.0,62.8,10,484,.,.,4.27,0.00,0.00
15min,AgWx,beryljct,423,22SEP2020:09:30:00,76.6,13.98,76.0,76.1,73.8,76.1,71.2,43,53,31,0.954,49.5,54.1,43.2,11.03,6.2,158,41,14.6,0.00407,0.00508,60.0,62.8,10,529,.,.,4.26,0.00,0.00
15min,AgWx,beryljct,423,22SEP2020:09:45:00,77.9,14.04,75.5,75.6,75.9,76.3,75.1,36,42,30,1.191,46.7,50.9,42.4,10.19,8.6,199,15,15.0,0.00479,0.00624,60.2,62.7,10,571,.,.,4.26,0.00,0.00
15min,AgWx,beryljct,423,22SEP2020:10:00:00,78.8,13.99,75.7,76.1,76.1,77.1,75.5,35,40,31,0.958,46.6,50.0,43.4,11.25,10.0,214,14,14.5,0.00516,0.00679,60.3,62.7,10,609,.,.,4.26,0.00,0.00
15min,AgWx,beryljct,423,22SEP2020:10:15:00,79.4,14.05,77.4,77.4,76.8,77.4,75.6,34,39,31,1.059,46.6,50.4,43.8,13.81,9.1,206,16,13.8,0.00535,0.00693,60.5,62.6,10,647,.,.,4.26,0.00,0.00
15min,AgWx,beryljct,423,22SEP2020:10:30:00,80.0,13.94,77.8,77.8,76.9,78.0,76.4,35,41,31,1.199,46.9,50.8,43.7,12.23,9.9,214,14,16.8,0.00567,0.00735,60.6,62.6,10,687,.,.,4.25,0.00,0.00
15min,AgWx,beryljct,423,22SEP2020:10:45:00,80.4,13.52,76.6,76.8,77.0,78.0,76.1,34,39,30,1.157,46.2,50.0,43.6,8.37,11.7,208,14,19.8,0.00570,0.00759,60.8,62.6,10,650,.,.,4.25,0.00,0.00
15min,AgWx,beryljct,423,22SEP2020:11:00:00,80.4,13.54,74.2,75.4,76.9,77.8,75.4,33,36,30,0.957,45.3,48.4,43.0,8.53,10.9,207,14,17.4,0.00503,0.00683,61.1,62.6,10,524,.,.,4.25,0.00,0.00
15min,AgWx,beryljct,423,22SEP2020:11:15:00,80.1,13.52,77.9,77.8,76.9,77.9,75.1,32,35,30,0.991,45.1,47.8,43.6,11.33,12.6,205,9.5,17.4,0.00624,0.00828,61.4,62.6,10,745,.,.,4.25,0.00,0.00
15min,AgWx,beryljct,423,22SEP2020:11:30:00,81.0,13.5,78.5,78.4,78.3,78.7,77.8,30,35,28,1.146,44.5,48.4,42.4,9.45,14.3,201,12,22.5,0.00712,0.00948,61.7,62.6,10,845,.,.,4.25,0.00,0.00
15min,AgWx,beryljct,423,22SEP2020:11:45:00,81.2,13.52,79.8,78.0,77.7,78.8,76.6,31,36,28,1.124,44.5,48.6,42.3,8.75,14.8,219,15,25.8,0.00667,0.00903,62.1,62.6,10,762,.,.,4.25,0.00,0.00
15min,AgWx,beryljct,423,22SEP2020:12:00:00,82.2,13.48,79.0,79.2,79.6,80.8,78.3,29,34,25,0.935,44.5,48.8,40.6,10.11,12.3,200,16,23.8,0.00728,0.00950,62.5,62.6,10,876,.,.,4.25,0.00,0.00
15min,AgWx,beryljct,423,22SEP2020:12:15:00,83.1,13.48,79.3,79.8,79.9,81.5,79.0,29,33,26,0.911,44.7,47.5,42.1,16.7,14.0,204,15,20.9,0.00753,0.00997,62.9,62.6,10,888,.,.,4.26,0.00,0.00
15min,AgWx,beryljct,423,22SEP2020:12:30:00,83.5,13.47,79.8,80.2,80.0,80.5,79.4,28,32,23,0.982,43.5,47.5,38.5,12.98,14.2,206,12,22.1,0.00757,0.01007,63.4,62.6,10,880,.,.,4.25,0.00,0.00
15min,AgWx,beryljct,423,22SEP2020:12:45:00,83.8,13.45,79.6,80.2,80.0,80.4,79.5,28,30,25,0.921,43.7,46.5,41.4,13.24,14.0,217,16,19.2,0.00739,0.00985,63.9,62.6,10,855,.,.,4.25,0.00,0.00
15min,AgWx,beryljct,423,22SEP2020:13:00:00,84.1,13.47,80.1,80.9,80.5,81.2,79.8,26,29,24,0.896,42.6,45.6,40.5,14.29,13.7,198,14,20.9,0.00737,0.00986,64.4,62.7,10,841,.,.,4.25,0.00,0.00
15min,AgWx,beryljct,423,22SEP2020:13:15:00,84.9,13.46,83.0,81.3,81.4,82.5,80.6,25,28,23,0.866,42.4,45.5,40.0,12.43,14.0,183,14,23.7,0.00742,0.00999,65.0,62.7,10,825,.,.,4.25,0.00,0.00
15min,AgWx,beryljct,423,22SEP2020:13:30:00,85.5,13.42,81.3,81.6,81.3,82.0,80.6,25,27,23,0.853,41.8,44.8,40.1,18.26,14.6,191,15,22.7,0.00742,0.01007,65.6,62.8,10,815,.,.,4.26,0.00,0.00
15min,AgWx,beryljct,423,22SEP2020:13:45:00,85.9,13.41,82.5,81.7,81.6,82.3,81.0,24,25,22,0.910,41.0,42.6,39.5,10.28,14.7,180,16,19.9,0.00739,0.01011,66.1,62.8,10,795,.,.,4.25,0.00,0.00
15min,AgWx,beryljct,423,22SEP2020:14:00:00,86.1,13.43,80.9,81.4,81.6,82.1,80.9,25,27,23,0.872,42.1,44.6,39.8,12.06,12.8,205,11,18.1,0.00676,0.00918,66.6,62.9,10,738,.,.,4.26,0.00,0.00
15min,AgWx,beryljct,423,22SEP2020:14:15:00,85.9,13.49,81.9,81.6,80.9,82.0,79.3,25,27,22,0.836,41.3,44.5,39.0,15.17,12.1,204,14,21.7,0.00606,0.00833,67.1,63.0,10,646,.,.,4.26,0.00,0.00
15min,AgWx,beryljct,423,22SEP2020:14:30:00,86.3,13.4,81.6,81.7,81.8,82.5,81.2,23,24,21,0.832,40.1,41.6,38.2,12.87,11.9,198,13,18.1,0.00662,0.00898,67.5,63.1,10,719,.,.,4.26,0.00,0.00
15min,AgWx,beryljct,423,22SEP2020:14:45:00,86.7,13.39,82.3,82.7,82.2,83.8,81.4,22,24,21,0.836,39.8,41.8,38.1,10.39,12.0,194,14,19.2,0.00611,0.00847,68.0,63.2,10,630,.,.,4.25,0.00,0.00
15min,AgWx,beryljct,423,22SEP2020:15:00:00,86.8,13.38,80.9,81.4,81.8,82.6,81.2,21,23,20,0.772,38.5,41.0,35.8,13.75,12.4,194,13,18.6,0.00578,0.00818,68.3,63.3,10,568,.,.,4.25,0.00,0.00
15min,AgWx,beryljct,423,22SEP2020:15:15:00,86.3,13.45,80.6,81.1,81.4,82.2,80.6,22,25,20,0.828,38.8,41.1,36.6,14.25,11.6,198,16,19.7,0.00527,0.00751,68.7,63.4,10,521,.,.,4.26,0.00,0.00
15min,AgWx,beryljct,423,22SEP2020:15:30:00,85.8,13.43,80.6,80.9,80.9,81.4,80.6,23,26,21,0.845,39.6,42.7,37.5,9.6,9.9,217,21,16.6,0.00438,0.00631,69.1,63.6,10,429,.,.,4.25,0.00,0.00
15min,AgWx,beryljct,423,22SEP2020:15:45:00,85.0,13.47,81.1,81.1,80.7,81.2,80.4,23,24,21,0.825,39.4,41.2,37.2,9.6,11.9,206,16,16.9,0.00463,0.00682,69.3,63.7,10,423,.,.,4.26,0.00,0.00
15min,AgWx,beryljct,423,22SEP2020:16:00:00,84.9,13.37,81.5,81.6,81.3,81.7,81.0,22,24,21,0.799,39.4,41.2,37.4,7.103,9.9,201,13,16.9,0.00470,0.00668,69.5,63.8,10,473,.,.,4.26,0.00,0.00
15min,AgWx,beryljct,423,22SEP2020:16:15:00,84.9,13.43,80.3,80.1,80.9,81.6,80.0,22,24,21,0.772,38.6,40.2,37.5,11.33,11.9,195,15,18.9,0.00412,0.00632,69.7,64.0,10,337,.,.,4.26,0.00,0.00
15min,AgWx,beryljct,423,22SEP2020:16:30:00,84.8,13.4,80.3,80.9,81.5,82.1,80.2,22,24,20,0.802,38.8,41.1,37.0,10.72,11.1,198,15,16.8,0.00445,0.00657,69.8,64.1,10,401,.,.,4.26,0.00,0.00
15min,AgWx,beryljct,423,22SEP2020:16:45:00,84.3,13.43,80.2,80.7,80.7,80.9,80.5,22,24,21,0.810,38.4,40.6,37.3,10.94,11.3,197,12,17.2,0.00370,0.00578,69.9,64.2,10,289,.,.,4.26,0.00,0.00
15min,AgWx,beryljct,423,22SEP2020:17:00:00,83.9,13.43,80.0,80.5,80.7,80.9,80.5,22,24,21,0.764,38.7,40.5,37.1,13.13,11.7,196,10,18.5,0.00382,0.00596,70.0,64.4,10,296,.,.,4.26,0.00,0.00
15min,AgWx,beryljct,423,22SEP2020:17:15:00,83.4,13.48,79.0,79.2,80.1,80.7,79.1,22,25,21,0.776,38.1,40.2,36.5,8.35,11.5,203,16,17.5,0.00331,0.00538,70.0,64.5,10,225,.,.,4.26,0.00,0.00
15min,AgWx,beryljct,423,22SEP2020:17:30:00,82.4,13.49,78.5,78.2,79.0,79.7,78.1,23,25,21,0.769,37.9,40.0,36.5,9.58,10.8,195,11,15.9,0.00253,0.00443,70.1,64.6,10,131,.,.,4.26,0.00,0.00
15min,AgWx,beryljct,423,22SEP2020:17:45:00,81.2,13.26,79.3,78.6,78.9,79.2,78.4,22,23,21,0.739,37.1,37.8,36.3,13.11,11.2,181,11,16.1,0.00161,0.00208,70.0,64.8,10,119,.,.,4.26,0.00,0.00
15min,AgWx,beryljct,423,22SEP2020:18:00:00,80.1,13.16,77.4,77.6,78.0,78.7,77.6,23,24,22,0.749,37.1,38.2,36.6,10.02,10.9,194,6.6,14.9,0.00146,0.00190,70.0,64.9,10,76,.,.,4.26,0.00,0.00
15min,AgWx,beryljct,423,22SEP2020:18:15:00,78.9,13.07,75.7,76.0,76.9,77.6,76.0,24,25,23,0.753,37.2,38.1,36.3,8.24,9.9,191,7.8,13.2,0.00125,0.00166,69.8,65.0,10,40,.,.,4.26,0.00,0.00
15min,AgWx,beryljct,423,22SEP2020:18:30:00,77.2,13.03,73.4,73.6,74.6,76.0,73.3,26,27,25,0.754,37.4,38.1,36.8,6.335,7.8,195,5.7,11.5,0.00091,0.00126,69.7,65.1,10,11,.,.,4.27,0.00,0.00
15min,AgWx,beryljct,423,22SEP2020:18:45:00,75.3,13.02,71.6,72.3,72.9,73.6,72.1,27,28,26,0.753,37.1,37.7,36.4,6.248,6.8,196,5.4,8.9,0.00074,0.00104,69.5,65.3,10,2,.,.,4.27,0.00,0.00
15min,AgWx,beryljct,423,22SEP2020:19:00:00,73.8,12.98,72.3,71.9,72.2,72.6,71.9,28,28,27,0.748,36.9,37.3,36.3,6.971,7.1,195,5.0,9.4,0.00074,0.00104,69.3,65.3,10,0,.,.,4.26,0.00,0.00
15min,AgWx,beryljct,423,22SEP2020:19:15:00,72.5,12.98,70.3,70.8,71.2,71.9,70.3,28,29,27,0.717,36.6,37.5,35.3,5.546,5.8,195,7.9,7.8,0.00059,0.00085,69.0,65.4,10,0,.,.,4.27,0.00,0.00
15min,AgWx,beryljct,423,22SEP2020:19:30:00,71.2,12.98,69.5,68.9,70.1,71.0,68.7,29,32,27,0.751,36.5,37.7,35.5,4.867,5.2,201,3.1,6.4,0.00049,0.00073,68.8,65.5,10,0,.,.,4.27,0.00,0.00
15min,AgWx,beryljct,423,22SEP2020:19:45:00,69.7,12.97,67.2,67.3,67.7,69.1,66.9,32,34,29,0.708,36.4,38.5,34.6,5.349,4.9,189,9.1,5.9,0.00041,0.00061,68.5,65.6,10,0,.,.,4.27,0.00,0.00
15min,AgWx,beryljct,423,22SEP2020:20:00:00,68.4,12.97,68.7,68.0,67.7,68.1,67.2,32,33,30,0.713,36.6,37.8,35.6,4.801,5.1,190,9.0,6.1,0.00043,0.00064,68.2,65.7,10,0,.,.,4.27,0.01,0.00
15min,AgWx,beryljct,423,22SEP2020:20:15:00,67.5,12.95,66.3,67.3,67.6,68.3,66.7,31,33,29,0.688,35.7,36.7,34.9,5.7,5.0,172,8.6,5.9,0.00042,0.00063,67.9,65.7,10,0,.,.,4.27,0.00,0.00
15min,AgWx,beryljct,423,22SEP2020:20:30:00,66.7,12.95,66.1,66.9,66.6,67.3,65.6,33,35,30,0.775,36.5,38.0,34.8,5.108,5.9,195,7.9,7.2,0.00049,0.00071,67.7,65.8,10,0,.,.,4.27,0.00,0.00
15min,AgWx,beryljct,423,22SEP2020:20:45:00,66.3,12.95,67.2,67.3,66.9,67.4,66.3,34,35,34,0.773,38.0,38.4,37.6,5.831,5.8,213,4.1,7.2,0.00047,0.00068,67.4,65.8,10,0,.,.,4.27,0.00,0.00
15min,AgWx,beryljct,423,22SEP2020:21:00:00,66.3,12.94,61.4,64.1,67.2,67.7,64.1,34,37,33,0.756,37.9,38.5,37.3,3.595,5.7,210,13,7.1,0.00048,0.00069,67.1,65.8,10,0,.,.,4.27,0.00,0.00
15min,AgWx,beryljct,423,22SEP2020:21:15:00,65.3,12.94,63.2,61.8,62.1,63.7,60.0,38,43,35,0.729,36.5,38.2,35.2,5.568,5.2,162,8.4,6.9,0.00034,0.00050,66.8,65.9,10,0,.,.,4.28,0.00,0.00
15min,AgWx,beryljct,423,22SEP2020:21:30:00,64.3,12.93,65.0,65.6,64.1,65.6,61.8,35,39,31,0.680,35.6,36.5,34.6,6.686,5.8,173,8.6,7.1,0.00045,0.00064,66.5,65.9,10,0,.,.,4.28,0.00,0.00
15min,AgWx,beryljct,423,22SEP2020:21:45:00,64.1,12.93,68.0,68.1,65.8,68.2,64.7,33,35,32,0.750,36.1,37.5,34.5,7.475,6.4,194,12,9.4,0.00053,0.00074,66.3,65.9,10,0,.,.,4.28,0.00,0.00
15min,AgWx,beryljct,423,22SEP2020:22:00:00,64.9,12.91,63.1,65.3,68.4,69.0,65.3,31,35,30,0.751,37.0,37.5,36.6,4.253,7.0,200,11,9.3,0.00065,0.00089,66.0,65.9,10,0,.,.,4.27,0.00,0.00
15min,AgWx,beryljct,423,22SEP2020:22:15:00,64.6,12.9,63.8,63.3,62.7,64.9,60.5,37,40,34,0.688,35.8,37.3,35.0,6.094,5.7,165,8.2,7.0,0.00040,0.00057,65.8,65.9,10,0,.,.,4.28,0.00,0.00
15min,AgWx,beryljct,423,22SEP2020:22:30:00,63.8,12.91,63.3,62.9,63.2,63.8,62.0,35,37,34,0.685,35.0,35.6,34.7,6.686,5.9,170,6.6,7.3,0.00044,0.00063,65.5,65.8,10,0,.,.,4.28,0.00,0.00
15min,AgWx,beryljct,423,22SEP2020:22:45:00,63.1,12.91,56.9,59.2,62.1,63.3,59.2,36,40,34,0.692,34.6,35.5,33.5,5.371,6.0,173,8.6,7.8,0.00043,0.00061,65.3,65.8,10,0,.,.,4.28,0.00,0.00
15min,AgWx,beryljct,423,22SEP2020:23:00:00,61.9,12.89,60.7,61.6,58.9,61.7,57.6,41,44,38,0.731,35.4,36.5,33.6,4.231,5.5,196,12,6.4,0.00032,0.00045,65.1,65.8,10,0,.,.,4.28,0.00,0.00
15min,AgWx,beryljct,423,22SEP2020:23:15:00,60.9,12.89,55.0,55.6,59.7,63.4,54.2,43,55,35,0.742,36.8,38.4,35.1,3.749,3.0,144,73,4.7,0.00008,0.00015,64.9,65.8,10,0,.,.,4.28,0.00,0.00
15min,AgWx,beryljct,423,22SEP2020:23:30:00,59.6,12.9,57.1,57.4,56.0,58.2,53.5,46,52,42,0.672,35.3,37.0,34.0,1.688,4.0,28,21,5.9,0.00015,0.00024,64.6,65.7,10,0,.,.,4.28,0.00,0.00
15min,AgWx,beryljct,423,22SEP2020:23:45:00,58.5,12.89,59.5,58.9,57.4,58.9,56.1,43,46,40,0.687,35.2,35.9,34.4,2.28,1.1,351,65,3.8,-0.00019,-0.00025,64.4,65.7,10,0,.,.,4.28,0.00,0.00
15min,AgWx,bigpiney,439,22SEP2020:00:00:00,39.2,12.59,34.5,34.7,34.3,35.5,33.0,66,69,64,0.441,24.3,24.9,23.4,3.749,5.0,233,6.3,6.7,0.00003,0.00006,48.1,48.0,45,0,0,0.0,0.00,0.00,0.00
15min,AgWx,bigpiney,439,22SEP2020:00:15:00,38.6,12.6,39.0,38.3,37.7,41.5,34.3,59,66,51,0.444,24.6,26.6,22.8,3.464,3.7,263,13,5.8,0.00002,0.00005,48.0,48.0,45,0,0,0.0,0.00,0.00,0.00
15min,AgWx,bigpiney,439,22SEP2020:00:30:00,38.0,12.59,31.3,31.6,34.7,40.0,31.3,64,72,54,0.419,23.6,25.4,22.6,5.765,3.7,235,25,5.8,0.00000,0.00002,48.0,48.0,45,0,0,0.0,0.00,0.00,0.00
15min,AgWx,bigpiney,439,22SEP2020:00:45:00,37.2,12.58,33.0,32.6,31.8,32.7,31.2,71,73,70,0.436,23.6,23.9,22.9,6.029,5.7,224,5.8,6.5,0.00003,0.00004,47.9,48.0,45,0,0,0.0,0.00,0.00,0.00
15min,AgWx,bigpiney,439,22SEP2020:01:00:00,36.7,12.57,31.4,31.2,32.5,33.4,31.2,69,71,68,0.420,23.5,24.0,22.7,5.568,5.7,215,4.3,6.2,0.00004,0.00006,47.9,48.1,45,0,0,0.0,0.00,0.00,0.00
15min,AgWx,bigpiney,439,22SEP2020:01:15:00,36.4,12.57,30.4,30.3,31.2,31.6,30.3,72,75,71,0.425,23.1,23.3,22.9,5.722,5.7,215,3.6,6.3,0.00002,0.00004,47.8,48.0,45,0,0,0.0,0.00,0.00,0.00
15min,AgWx,bigpiney,439,22SEP2020:01:30:00,36.0,12.56,33.8,34.8,32.9,35.7,30.0,69,76,61,0.422,23.8,24.7,22.8,3.332,3.4,253,25,5.9,-0.00003,-0.00002,47.8,48.0,45,0,0,0.0,0.00,0.00,0.00
15min,AgWx,bigpiney,439,22SEP2020:01:45:00,35.9,12.54,37.6,37.2,35.5,37.2,33.6,62,65,58,0.434,23.5,24.1,22.9,1.074,1.2,232,35,4.3,-0.00014,-0.00018,47.7,48.0,45,0,0,0.0,0.00,0.00,0.00
15min,AgWx,bigpiney,439,22SEP2020:02:00:00,36.0,12.54,33.7,33.4,35.2,37.3,33.4,62,66,57,0.428,23.3,23.7,22.8,1.535,0.7,173,17,2.0,-0.00019,-0.00027,47.7,47.9,45,0,0,0.0,0.00,0.00,0.00
15min,AgWx,bigpiney,439,22SEP2020:02:15:00,35.8,12.53,35.1,35.8,34.3,35.8,32.6,64,68,61,0.432,23.5,23.9,22.7,0,0.3,350,49,1.2,-0.00022,-0.00032,47.6,48.0,45,0,0,0.0,0.00,0.00,0.00
15min,AgWx,bigpiney,439,22SEP2020:02:30:00,35.6,12.52,33.7,33.9,35.1,35.8,33.7,61,64,60,0.421,23.1,23.5,22.4,2.28,0.8,276,38,2.3,-0.00018,-0.00025,47.5,48.0,45,0,0,0.0,0.00,0.00,0.00
15min,AgWx,bigpiney,439,22SEP2020:02:45:00,35.2,12.52,32.8,32.7,34.0,35.1,32.7,64,66,62,0.415,23.0,23.4,22.3,3.727,3.8,230,9.2,5.1,0.00000,0.00002,47.5,48.0,45,0,0,0.0,0.00,0.00,0.00
15min,AgWx,bigpiney,439,22SEP2020:03:00:00,34.7,12.51,33.5,33.5,34.0,36.2,31.6,65,70,59,0.452,23.4,24.7,22.2,3.398,3.1,233,11,4.3,-0.00003,-0.00002,47.4,48.0,45,0,0,0.0,0.00,0.00,0.00
15min,AgWx,bigpiney,439,22SEP2020:03:15:00,34.3,12.5,35.1,34.7,32.9,34.9,31.9,68,71,62,0.422,23.4,24.8,22.1,2.609,3.1,253,18,4.0,-0.00004,-0.00003,47.4,48.0,45,0,0,0.0,0.00,0.00,0.00
15min,AgWx,bigpiney,439,22SEP2020:03:30:00,33.9,12.49,34.3,34.3,35.6,36.3,34.3,60,63,59,0.409,23.2,23.8,22.2,3.332,3.1,296,11,4.3,-0.00002,-0.00000,47.3,48.0,45,0,0,0.0,0.00,0.00,0.00
15min,AgWx,bigpiney,439,22SEP2020:03:45:00,33.7,12.48,33.3,33.1,33.7,34.5,33.0,62,65,61,0.413,22.2,22.6,21.6,2.302,2.8,268,11,3.6,-0.00003,-0.00003,47.3,48.0,45,0,0,0.0,0.00,0.00,0.00
15min,AgWx,bigpiney,439,22SEP2020:04:00:00,33.4,12.46,35.7,35.3,34.5,35.7,33.1,63,65,60,0.427,23.0,23.7,22.5,0,0.6,249,2.4,2.3,-0.00019,-0.00027,47.2,47.9,45,0,0,0.0,0.00,0.00,0.00
15min,AgWx,bigpiney,439,22SEP2020:04:15:00,33.1,12.46,33.7,34.4,34.9,36.4,33.6,62,65,59,0.431,23.3,23.9,22.0,1.271,0.9,234,10,2.3,-0.00017,-0.00023,47.2,48.0,45,0,0,0.0,0.00,0.00,0.00
15min,AgWx,bigpiney,439,22SEP2020:04:30:00,32.5,12.45,32.1,31.5,32.7,34.7,31.5,67,69,63,0.396,22.8,24.1,21.4,2.017,2.4,210,8.5,4.3,-0.00007,-0.00007,47.1,47.9,45,0,0,0.0,0.00,0.00,0.00
15min,AgWx,bigpiney,439,22SEP2020:04:45:00,31.8,12.44,30.1,30.0,30.3,32.1,28.4,71,75,67,0.407,22.2,23.5,20.1,4.494,4.1,218,7.8,5.5,-0.00001,-0.00000,47.0,48.0,45,0,0,0.0,0.00,0.00,0.00
15min,AgWx,bigpiney,439,22SEP2020:05:00:00,31.5,12.43,30.2,30.9,32.7,35.6,29.4,68,76,62,0.383,23.3,25.1,20.7,1.995,3.5,245,8.2,4.6,-0.00002,-0.00001,46.9,47.9,45,0,0,0.0,0.00,0.00,0.00
15min,AgWx,bigpiney,439,22SEP2020:05:15:00,31.5,12.43,35.3,34.2,32.5,34.2,30.7,68,71,66,0.439,23.1,24.0,21.0,0,1.5,248,5.9,2.8,-0.00012,-0.00015,46.9,47.9,45,0,0,0.0,0.00,0.00,0.00
15min,AgWx,bigpiney,439,22SEP2020:05:30:00,31.6,12.42,35.3,35.0,34.8,35.6,34.3,63,66,62,0.432,23.6,24.1,23.1,1.096,0.3,240,17,1.2,-0.00023,-0.00035,46.8,47.9,45,0,0,0.0,0.00,0.00,0.00
15min,AgWx,bigpiney,439,22SEP2020:05:45:00,31.6,12.4,30.4,30.6,33.5,35.1,30.6,64,70,61,0.401,22.8,23.5,21.0,0.351,0.3,223,16,1.7,-0.00022,-0.00033,46.7,47.9,45,0,0,0.0,0.00,0.00,0.00
15min,AgWx,bigpiney,439,22SEP2020:06:00:00,31.5,12.4,31.4,31.5,31.0,31.5,30.4,70,71,70,0.418,22.5,23.0,21.8,0.526,0.5,306,14,1.6,-0.00018,-0.00027,46.7,47.9,45,1,0,0.0,0.00,0.00,0.00
15min,AgWx,bigpiney,439,22SEP2020:06:15:00,31.4,12.4,32.0,31.7,32.2,32.9,31.5,67,70,66,0.406,22.5,22.8,21.9,0.723,2.0,307,14,3.5,-0.00007,-0.00008,46.6,47.9,45,7,0,0.0,0.00,0.00,0.00
15min,AgWx,bigpiney,439,22SEP2020:06:30:00,31.5,12.45,34.8,34.4,32.7,34.4,31.2,66,68,64,0.429,22.7,23.5,21.6,0.526,1.9,247,11,3.5,-0.00024,-0.00018,46.6,47.9,45,22,0,0.0,0.00,0.00,0.00
15min,AgWx,bigpiney,439,22SEP2020:06:45:00,31.8,12.48,33.0,33.6,33.7,34.7,32.0,65,69,64,0.430,23.3,23.8,22.2,2.126,1.0,188,17,2.3,-0.00015,-0.00012,46.5,47.8,45,58,0,0.0,0.00,0.00,0.00
15min,AgWx,bigpiney,439,22SEP2020:07:00:00,32.3,12.62,32.4,32.1,33.1,34.2,32.0,69,78,65,0.477,24.0,25.9,23.1,1.71,2.1,202,26,2.9,0.00003,0.00011,46.4,47.8,45,85,0,0.0,0.00,0.00,0.00
15min,AgWx,bigpiney,439,22SEP2020:07:15:00,33.1,12.49,35.8,34.8,33.5,34.8,32.0,78,80,71,0.482,27.3,28.2,25.9,0.965,1.3,250,25,2.6,0.00018,0.00022,46.4,47.8,45,75,0,0.0,0.00,0.00,0.00
15min,AgWx,bigpiney,439,22SEP2020:07:30:00,34.2,12.61,37.5,37.0,36.1,37.0,34.9,68,71,63,0.519,26.5,28.2,24.6,0.702,1.5,254,59,2.8,0.00033,0.00041,46.3,47.8,45,78,0,0.0,0.00,0.00,0.00
15min,AgWx,bigpiney,439,22SEP2020:07:45:00,35.7,12.83,40.1,39.6,38.3,39.6,37.0,64,69,59,0.500,27.1,28.0,25.9,1.863,0.8,203,31,2.1,0.00047,0.00054,46.3,47.8,45,128,0,0.0,0.00,0.00,0.00
15min,AgWx,bigpiney,439,22SEP2020:08:00:00,37.9,12.99,42.4,42.2,40.9,42.3,39.6,60,64,57,0.518,28.0,29.2,27.0,1.863,0.9,45,41,2.5,0.00064,0.00073,46.2,47.7,45,152,0,0.0,0.00,0.00,0.00
15min,AgWx,bigpiney,439,22SEP2020:08:15:00,40.1,12.87,43.1,43.1,42.7,43.1,42.2,58,60,57,0.559,29.1,29.8,28.0,1.556,2.5,92,45,5.8,0.00070,0.00089,46.2,47.7,45,109,0,0.0,0.00,0.00,0.00
15min,AgWx,bigpiney,439,22SEP2020:08:30:00,42.0,13.22,44.3,44.0,43.6,44.0,43.1,56,60,52,0.517,29.0,30.6,27.4,1.6,2.1,15,14,5.3,0.00080,0.00098,46.1,47.7,45,132,0,0.0,0.00,0.00,0.00